Location: Newark
(30.8300°N, 83.2700°W)
Time: 03:19:24
(UTC+00:00)

OTV 5 (USA 277) - Visible Passes

Search period start: 24 October 2019 00:00
Search period end: 03 November 2019 00:00
Orbit: 310 x 324 km, 54.5° (Epoch: 17 October)

Date Brightness Start Highest point End Pass type
(mag) Time Alt. Az. Time Alt. Az. Time Alt. Az.
25 Oct ? 23:55:55 10° S 23:58:05 29° SE 23:58:05 29° SE visible
27 Oct ? 00:10:07 10° SW 00:12:47 60° NW 00:12:58 58° NNW visible
28 Oct ? 00:25:28 10° W 00:27:25 18° NW 00:27:43 17° NW visible
29 Oct ? 23:19:43 10° WSW 23:22:10 30° NW 23:24:39 10° NNE visible
30 Oct ? 23:36:01 10° WNW 23:36:54 11° NW 23:37:47 10° NNW visible
